When you browse on this site, cookies collect data to enhance your experience and personalize the content and advertising you see.
Visit our Privacy Policy to learn more. By continuing to use the site, you agree to this use of cookies and data.
  • în România
  • Lista ţărilor
  • Pe 7 zile
  • Temperatura apei
  • Meteo pe hartă
  • Widget-uri
  • user-avatar
    Intrare

    Meteo pe oră la Alaquas

    Astăzi, 13 Noiembrie, Miercuri

    Timp Temperatura Precipitaţii Vânt Presiune Umiditate
    00:00 +12°C° 0 mm 4 m/s 752 mmHg 55%
    01:00 +12°C° 0 mm 5 m/s 751 mmHg 56%
    02:00 +13°C° 0 mm 5 m/s 750 mmHg 58%
    03:00 +13°C° 0 mm 6 m/s 750 mmHg 60%
    04:00 +14°C° 0 mm 7 m/s 749 mmHg 62%
    05:00 +15°C° 0 mm 8 m/s 749 mmHg 64%
    06:00 +14°C° 0 mm 10 m/s 748 mmHg 65%
    07:00 +16°C° 0 mm 10 m/s 748 mmHg 62%
    08:00 +18°C° 0 mm 11 m/s 749 mmHg 58%
    09:00 +19°C° 0 mm 12 m/s 749 mmHg 54%
    10:00 +19°C° 0 mm 11 m/s 749 mmHg 49%
    11:00 +21°C° 0 mm 9 m/s 750 mmHg 44%
    12:00 +21°C° 0 mm 8 m/s 751 mmHg 39%
    13:00 +21°C° 0 mm 7 m/s 751 mmHg 37%
    14:00 +21°C° 0 mm 6 m/s 751 mmHg 34%
    15:00 +22°C° 0 mm 5 m/s 751 mmHg 32%
    16:00 +19°C° 0 mm 4 m/s 752 mmHg 41%
    17:00 +17°C° 0 mm 3 m/s 752 mmHg 50%
    18:00 +15°C° 0 mm 2 m/s 753 mmHg 59%
    19:00 +15°C° 0 mm 2 m/s 753 mmHg 62%
    20:00 +14°C° 0 mm 2 m/s 753 mmHg 64%
    21:00 +14°C° 0 mm 2 m/s 753 mmHg 66%
    22:00 +13°C° 0 mm 3 m/s 753 mmHg 68%
    23:00 +13°C° 0 mm 3 m/s 752 mmHg 71%

    Mâine, 14 Noiembrie, Joi

    Timp Temperatura Precipitaţii Vânt Presiune Umiditate
    00:00 +13°C° 0 mm 3 m/s 752 mmHg 73%
    01:00 +13°C° 0 mm 4 m/s 751 mmHg 74%
    02:00 +14°C° 0 mm 5 m/s 750 mmHg 74%
    03:00 +14°C° 0 mm 6 m/s 750 mmHg 75%
    04:00 +14°C° 0 mm 6 m/s 749 mmHg 72%
    05:00 +14°C° 0 mm 6 m/s 748 mmHg 69%
    06:00 +14°C° 0 mm 6 m/s 748 mmHg 66%
    07:00 +14°C° 0 mm 7 m/s 748 mmHg 62%
    08:00 +13°C° 0 mm 8 m/s 747 mmHg 58%
    09:00 +13°C° 0 mm 9 m/s 747 mmHg 54%
    10:00 +13°C° 0 mm 10 m/s 747 mmHg 54%
    11:00 +13°C° 0 mm 11 m/s 747 mmHg 53%
    12:00 +13°C° 0 mm 12 m/s 746 mmHg 52%
    13:00 +14°C° 0.1 mm 11 m/s 746 mmHg 45%
    14:00 +14°C° 0.1 mm 10 m/s 746 mmHg 37%
    15:00 +14°C° 0.1 mm 10 m/s 745 mmHg 30%
    16:00 +12°C° 0 mm 8 m/s 746 mmHg 33%
    17:00 +11°C° 0 mm 6 m/s 746 mmHg 36%
    18:00 +10°C° 0 mm 4 m/s 746 mmHg 39%
    19:00 +9°C° 0 mm 5 m/s 746 mmHg 46%
    20:00 +8°C° 0 mm 6 m/s 746 mmHg 53%
    21:00 +8°C° 0 mm 6 m/s 746 mmHg 60%
    22:00 +8°C° 0 mm 6 m/s 746 mmHg 61%
    23:00 +7°C° 0 mm 5 m/s 746 mmHg 62%

    Poimâine, 15 Noiembrie, Vineri

    Timp Temperatura Precipitaţii Vânt Presiune Umiditate
    00:00 +7°C° 0 mm 5 m/s 746 mmHg 64%
    01:00 +7°C° 0 mm 5 m/s 747 mmHg 65%
    02:00 +7°C° 0 mm 5 m/s 747 mmHg 66%
    03:00 +7°C° 0 mm 5 m/s 748 mmHg 67%
    04:00 +6°C° 0 mm 5 m/s 748 mmHg 64%
    05:00 +5°C° 0 mm 5 m/s 748 mmHg 61%
    06:00 +5°C° 0 mm 5 m/s 749 mmHg 59%
    07:00 +6°C° 0 mm 4 m/s 750 mmHg 60%
    08:00 +8°C° 0 mm 5 m/s 750 mmHg 56%
    09:00 +9°C° 0 mm 5 m/s 751 mmHg 53%
    10:00 +11°C° 0 mm 4 m/s 750 mmHg 48%
    11:00 +12°C° 0 mm 4 m/s 750 mmHg 44%
    12:00 +14°C° 0 mm 4 m/s 750 mmHg 39%
    13:00 +14°C° 0 mm 3 m/s 750 mmHg 38%
    14:00 +14°C° 0 mm 3 m/s 750 mmHg 36%
    15:00 +15°C° 0 mm 2 m/s 749 mmHg 34%
    16:00 +14°C° 0 mm 2 m/s 750 mmHg 40%
    17:00 +12°C° 0 mm 2 m/s 750 mmHg 45%
    18:00 +9°C° 0 mm 3 m/s 751 mmHg 51%
    19:00 +9°C° 0 mm 3 m/s 751 mmHg 52%
    20:00 +8°C° 0 mm 3 m/s 751 mmHg 54%
    21:00 +8°C° 0 mm 3 m/s 752 mmHg 55%
    22:00 +7°C° 0 mm 3 m/s 752 mmHg 56%
    23:00 +7°C° 0 mm 3 m/s 752 mmHg 58%

    16 Noiembrie, Sâmbătă

    Timp Temperatura Precipitaţii Vânt Presiune Umiditate
    00:00 +7°C° 0 mm 3 m/s 752 mmHg 59%
    01:00 +5°C° 0 mm 3 m/s 752 mmHg 60%
    02:00 +5°C° 0 mm 3 m/s 752 mmHg 61%
    03:00 +5°C° 0 mm 3 m/s 752 mmHg 63%
    04:00 +5°C° 0 mm 3 m/s 753 mmHg 64%
    05:00 +4°C° 0 mm 3 m/s 753 mmHg 65%
    06:00 +4°C° 0 mm 3 m/s 753 mmHg 66%
    07:00 +7°C° 0 mm 3 m/s 754 mmHg 60%
    08:00 +8°C° 0 mm 3 m/s 755 mmHg 54%
    09:00 +10°C° 0 mm 3 m/s 755 mmHg 49%
    10:00 +11°C° 0 mm 3 m/s 755 mmHg 43%
    11:00 +14°C° 0 mm 2 m/s 755 mmHg 37%
    12:00 +15°C° 0 mm 2 m/s 755 mmHg 31%
    13:00 +15°C° 0 mm 2 m/s 755 mmHg 30%
    14:00 +16°C° 0 mm 3 m/s 755 mmHg 29%
    15:00 +16°C° 0 mm 3 m/s 755 mmHg 28%
    16:00 +13°C° 0 mm 3 m/s 755 mmHg 35%
    17:00 +12°C° 0 mm 2 m/s 756 mmHg 41%
    18:00 +9°C° 0 mm 2 m/s 756 mmHg 48%
    19:00 +8°C° 0 mm 2 m/s 756 mmHg 50%
    20:00 +8°C° 0 mm 2 m/s 757 mmHg 52%
    21:00 +7°C° 0 mm 3 m/s 757 mmHg 54%
    22:00 +7°C° 0 mm 3 m/s 757 mmHg 55%
    23:00 +7°C° 0 mm 3 m/s 757 mmHg 56%

    17 Noiembrie, Duminică

    Timp Temperatura Precipitaţii Vânt Presiune Umiditate
    00:00 +5°C° 0 mm 3 m/s 756 mmHg 58%
    01:00 +5°C° 0 mm 4 m/s 756 mmHg 59%
    02:00 +5°C° 0 mm 4 m/s 755 mmHg 60%
    03:00 +5°C° 0 mm 4 m/s 755 mmHg 61%
    04:00 +5°C° 0 mm 4 m/s 755 mmHg 61%
    05:00 +6°C° 0 mm 5 m/s 754 mmHg 60%
    06:00 +6°C° 0 mm 5 m/s 754 mmHg 60%
    07:00 +8°C° 0 mm 6 m/s 754 mmHg 58%
    08:00 +9°C° 0 mm 7 m/s 754 mmHg 56%
    09:00 +10°C° 0 mm 7 m/s 754 mmHg 54%
    10:00 +12°C° 0 mm 8 m/s 753 mmHg 54%
    11:00 +13°C° 0 mm 9 m/s 753 mmHg 53%
    12:00 +16°C° 0 mm 10 m/s 752 mmHg 52%
    13:00 +15°C° 0 mm 9 m/s 752 mmHg 55%
    14:00 +15°C° 0 mm 9 m/s 751 mmHg 57%
    15:00 +15°C° 0 mm 8 m/s 750 mmHg 59%
    16:00 +13°C° 0.1 mm 8 m/s 750 mmHg 62%
    17:00 +14°C° 0.1 mm 7 m/s 750 mmHg 65%
    18:00 +12°C° 0.1 mm 7 m/s 750 mmHg 68%
    19:00 +11°C° 0.1 mm 6 m/s 750 mmHg 69%
    20:00 +12°C° 0.1 mm 5 m/s 751 mmHg 69%
    21:00 +10°C° 0.1 mm 5 m/s 751 mmHg 69%
    22:00 +9°C° 0 mm 5 m/s 751 mmHg 69%
    23:00 +9°C° 0 mm 5 m/s 751 mmHg 68%

    18 Noiembrie, Luni

    Timp Temperatura Precipitaţii Vânt Presiune Umiditate
    00:00 +8°C° 0 mm 5 m/s 751 mmHg 68%
    01:00 +8°C° 0 mm 5 m/s 751 mmHg 68%
    02:00 +7°C° 0 mm 5 m/s 751 mmHg 68%
    03:00 +7°C° 0 mm 5 m/s 751 mmHg 68%
    04:00 +7°C° 0 mm 5 m/s 752 mmHg 69%
    05:00 +7°C° 0 mm 5 m/s 752 mmHg 71%
    06:00 +7°C° 0 mm 6 m/s 752 mmHg 72%
    07:00 +9°C° 0 mm 6 m/s 753 mmHg 66%
    08:00 +10°C° 0 mm 6 m/s 754 mmHg 61%
    09:00 +13°C° 0 mm 6 m/s 754 mmHg 55%
    10:00 +14°C° 0 mm 6 m/s 754 mmHg 50%
    11:00 +15°C° 0 mm 7 m/s 754 mmHg 44%
    12:00 +17°C° 0 mm 7 m/s 754 mmHg 39%
    13:00 +17°C° 0 mm 6 m/s 755 mmHg 39%
    14:00 +16°C° 0 mm 6 m/s 755 mmHg 40%
    15:00 +16°C° 0 mm 6 m/s 755 mmHg 40%
    16:00 +15°C° 0 mm 5 m/s 755 mmHg 46%
    17:00 +13°C° 0 mm 5 m/s 755 mmHg 51%
    18:00 +10°C° 0 mm 5 m/s 756 mmHg 56%
    19:00 +10°C° 0 mm 5 m/s 756 mmHg 58%
    20:00 +10°C° 0 mm 4 m/s 757 mmHg 60%
    21:00 +8°C° 0 mm 4 m/s 757 mmHg 61%
    22:00 +8°C° 0 mm 4 m/s 757 mmHg 63%
    23:00 +8°C° 0 mm 4 m/s 757 mmHg 65%
    Arată mai mult